Date String (YYYY-MM-DD hh:mm:ss) UTC,Instrument flags,absolute air pressure of the measurement (hPa),sample flow rate (lpm),inlet stack bypass flow (lpm),air temperature of the measurement (°C),ambient temperature measured by the external sensor (°C),aerosol sample conditioner tube jacket temperature (°C),OPC LED temperature (°C),internal box temperature (°C),relative humidity of the measurement (%),span deviation,mass concentration of particles derived from Lorenz-Mie calculation of OPC scattering (μg/m³),mass concentration of particles derived from Lorenz-Mie calculation of OPC scattering (μg/m³),mass concentration of particles derived from Lorenz-Mie calculation of OPC scattering (μg/m³)
DateTimeUTC,F1_M11,P_M11,Q1_M11,Q2_M11,T1_M11,T2_M11,T3_M11,T4_M11,T5_M11,U1_M11,ZSPAN_M11,X0_M11,X2_M11,X1_M11
2024-04-18 09:00:00,SystemResetWarning,0832.7,5.01,000.00,023.6,022.7,000.0,032.4,025.5,019.0,0000.0,0003.74,0002.53,0002.45
2024-04-18 09:01:00,SystemResetWarning,0832.7,5.01,000.00,023.6,022.7,000.0,032.4,025.5,019.0,0000.0,0003.73,0002.52,0002.44
2024-04-18 09:02:00,SystemResetWarning,0832.7,5.01,000.00,023.6,022.6,000.0,032.4,025.5,019.0,0000.0,0003.66,0002.47,0002.40
2024-04-18 09:03:00,SystemResetWarning,0832.7,4.99,000.00,023.6,022.6,000.0,032.3,025.5,018.9,0000.0,0003.61,0002.42,0002.36
2024-04-18 09:04:00,SystemResetWarning,0832.7,4.99,000.00,023.6,022.6,000.0,032.3,025.5,018.9,0000.0,0003.62,0002.39,0002.32
2024-04-18 09:05:00,SystemResetWarning,0832.6,4.99,000.00,023.6,022.6,000.0,032.3,025.5,018.9,0000.0,0003.58,0002.36,0002.29
2024-04-18 09:06:00,SystemResetWarning,0832.6,5.00,000.00,023.6,022.7,000.0,032.3,025.5,018.9,0000.0,0003.42,0002.32,0002.26
2024-04-18 09:07:00,SystemResetWarning,0832.6,5.01,000.00,023.5,022.7,000.0,032.3,025.5,018.9,0000.0,0003.38,0002.28,0002.23
2024-04-18 09:08:00,SystemResetWarning,0832.7,5.01,000.00,023.5,022.7,000.0,032.3,025.5,018.9,0000.0,0002.26,0002.26,0002.21
2024-04-18 09:09:00,SystemResetWarning,0832.7,5.00,000.00,023.5,022.7,000.0,032.3,025.5,018.9,0000.0,0002.01,0002.23,0002.18
2024-04-18 09:10:00,SystemResetWarning,0832.7,5.00,000.00,023.5,022.6,000.0,032.3,025.5,018.9,0000.0,0001.98,0002.19,0002.14
2024-04-18 09:11:00,SystemResetWarning,0832.7,4.99,000.00,023.5,022.6,000.0,032.3,025.5,018.8,0000.0,0001.97,0002.16,0002.11
2024-04-18 09:12:00,SystemResetWarning,0832.7,4.99,000.00,023.5,022.6,000.0,032.3,025.4,018.8,0000.0,0001.98,0002.14,0002.07
2024-04-18 09:13:00,SystemResetWarning,0832.7,5.01,000.00,023.5,022.6,000.0,032.3,025.4,018.7,0000.0,0001.98,0002.12,0002.05
2024-04-18 09:14:00,SystemResetWarning,0832.7,5.01,000.00,023.5,022.6,000.0,032.2,025.4,018.7,0000.0,0002.02,0002.13,0002.05
2024-04-18 09:15:00,SystemResetWarning,0832.7,5.00,000.00,023.5,022.6,000.0,032.2,025.4,018.6,0000.0,0002.01,0002.11,0002.03
2024-04-18 09:16:00,SystemResetWarning,0832.7,5.00,000.00,023.5,022.5,000.0,032.2,025.4,018.5,0000.0,0002.08,0002.12,0002.02
2024-04-18 09:17:00,SystemResetWarning,0832.8,4.99,000.00,023.4,022.5,000.0,032.2,025.3,018.5,0000.0,0002.13,0002.13,0002.02
2024-04-18 09:18:00,SystemResetWarning,0832.7,5.00,000.00,023.4,022.5,000.0,032.2,025.3,018.4,0000.0,0002.13,0002.11,0002.01
2024-04-18 09:19:00,SystemResetWarning,0832.8,4.99,000.00,023.4,022.4,000.0,032.2,025.3,018.4,0000.0,0002.17,0002.10,0001.99
2024-04-18 09:20:00,SystemResetWarning,0832.7,4.99,000.00,023.4,022.4,000.0,032.2,025.3,018.3,0000.0,0002.21,0002.11,0001.98
2024-04-18 09:21:00,SystemResetWarning,0832.8,5.00,000.00,023.4,022.4,000.0,032.2,025.2,018.3,0000.0,0002.24,0002.10,0001.98
2024-04-18 09:22:00,SystemResetWarning,0832.8,5.01,000.00,023.3,022.3,000.0,032.2,025.2,018.3,0000.0,0002.24,0002.08,0001.95
2024-04-18 09:23:00,SystemResetWarning,0832.8,5.00,000.00,023.3,022.3,000.0,032.1,025.2,018.3,0000.0,0002.30,0002.09,0001.94
2024-04-18 09:24:00,SystemResetWarning,0832.9,5.00,000.00,023.3,022.3,000.0,032.1,025.2,018.3,0000.0,0002.32,0002.08,0001.94
2024-04-18 09:25:00,SystemResetWarning,0832.9,5.00,000.00,023.3,022.3,000.0,032.1,025.2,018.2,0000.0,0002.34,0002.07,0001.93
2024-04-18 09:26:00,SystemResetWarning,0832.8,5.00,000.00,023.3,022.3,000.0,032.1,025.2,018.2,0000.0,0002.43,0002.06,0001.91
2024-04-18 09:27:00,SystemResetWarning,0832.8,5.00,000.00,023.3,022.3,000.0,032.1,025.2,018.3,0000.0,0002.41,0002.05,0001.90
2024-04-18 09:28:00,SystemResetWarning,0832.8,5.01,000.00,023.3,022.3,000.0,032.1,025.2,018.3,0000.0,0002.37,0002.03,0001.89
2024-04-18 09:29:00,SystemResetWarning,0832.9,4.99,000.00,023.2,022.3,000.0,032.1,025.1,018.3,0000.0,0002.35,0002.00,0001.87
2024-04-18 09:30:00,SystemResetWarning,0833.2,4.99,000.00,023.2,022.3,000.0,032.0,025.1,018.3,0000.0,0002.29,0001.97,0001.86
2024-04-18 09:31:00,SystemResetWarning,0833.3,5.00,000.00,023.2,022.3,000.0,032.0,025.1,018.4,0000.0,0002.31,0001.98,0001.86
2024-04-18 09:32:00,SystemResetWarning,0833.0,5.00,000.00,023.2,022.3,000.0,032.0,025.1,018.4,0000.0,0002.32,0001.99,0001.86
2024-04-18 09:33:00,SystemResetWarning,0832.9,5.00,000.00,023.2,022.3,000.0,032.0,025.1,018.4,0000.0,0002.38,0002.00,0001.87
2024-04-18 09:34:00,SystemResetWarning,0832.8,5.00,000.00,023.2,022.3,000.0,032.0,025.1,018.4,0000.0,0002.38,0001.99,0001.87
2024-04-18 09:35:00,SystemResetWarning,0833.1,5.01,000.00,023.2,022.3,000.0,032.0,025.1,018.4,0000.0,0002.39,0001.99,0001.87
2024-04-18 09:36:00,SystemResetWarning,0833.3,5.00,000.00,023.2,022.3,000.0,032.0,025.1,018.4,0000.0,0002.40,0001.99,0001.87
2024-04-18 09:37:00,SystemResetWarning,0833.1,5.00,000.00,023.2,022.2,000.0,032.0,025.1,018.4,0000.0,0002.28,0001.98,0001.88
2024-04-18 09:38:00,SystemResetWarning,0832.9,5.00,000.00,023.2,022.2,000.0,032.0,025.1,018.4,0000.0,0002.31,0001.98,0001.87
2024-04-18 09:39:00,SystemResetWarning,0833.0,5.00,000.00,023.1,022.2,000.0,031.9,025.0,018.4,0000.0,0002.32,0001.98,0001.88
2024-04-18 09:40:00,SystemResetWarning,0832.9,5.01,000.00,023.1,022.2,000.0,031.9,025.1,018.4,0000.0,0002.36,0002.00,0001.89
2024-04-18 09:41:00,SystemResetWarning,0832.9,5.01,000.00,023.1,022.2,000.0,031.9,025.0,018.4,0000.0,0002.38,0002.01,0001.89
2024-04-18 09:42:00,SystemResetWarning,0833.3,5.00,000.00,023.1,022.2,000.0,031.9,025.0,018.4,0000.0,0002.38,0001.99,0001.88
2024-04-18 09:43:00,SystemResetWarning,0833.3,5.00,000.00,023.1,022.2,000.0,031.9,025.0,018.4,0000.0,0002.37,0001.98,0001.87
2024-04-18 09:44:00,SystemResetWarning,0833.2,5.00,000.00,023.1,022.2,000.0,031.9,025.0,018.4,0000.0,0002.37,0001.98,0001.87
2024-04-18 09:45:00,SystemResetWarning,0833.0,5.00,000.00,023.1,022.2,000.0,031.9,025.0,018.4,0000.0,0002.44,0002.02,0001.86
2024-04-18 09:46:00,SystemResetWarning,0833.3,4.99,000.00,023.1,022.2,000.0,031.9,025.0,018.4,0000.0,0002.46,0002.04,0001.88
2024-04-18 09:47:00,SystemResetWarning,0833.2,5.00,000.00,023.1,022.2,000.0,031.9,025.0,018.4,0000.0,0002.44,0002.04,0001.89
2024-04-18 09:48:00,SystemResetWarning,0833.4,4.99,000.00,023.0,022.1,000.0,031.8,025.0,018.4,0000.0,0002.50,0002.08,0001.91
2024-04-18 09:49:00,SystemResetWarning,0832.9,5.00,000.00,023.0,022.1,000.0,031.8,024.9,018.4,0000.0,0002.54,0002.11,0001.92
2024-04-18 09:50:00,SystemResetWarning,0833.0,5.00,000.00,023.0,022.1,000.0,031.8,024.9,018.5,0000.0,0002.58,0002.12,0001.92
2024-04-18 09:51:00,SystemResetWarning,0833.0,5.00,000.00,023.0,022.1,000.0,031.8,024.9,018.5,0000.0,0002.57,0002.13,0001.93
2024-04-18 09:52:00,SystemResetWarning,0832.9,5.00,000.00,023.0,022.1,000.0,031.8,024.9,018.5,0000.0,0002.64,0002.16,0001.95
2024-04-18 09:53:00,SystemResetWarning,0833.0,5.00,000.00,023.0,022.1,000.0,031.8,024.9,018.5,0000.0,0002.69,0002.20,0001.98
2024-04-18 09:54:00,SystemResetWarning,0833.2,5.00,000.00,023.0,022.1,000.0,031.8,024.9,018.5,0000.0,0002.74,0002.24,0002.02
2024-04-18 09:55:00,SystemResetWarning,0832.9,5.00,000.00,023.0,022.0,000.0,031.8,024.9,018.5,0000.0,0002.78,0002.27,0002.05
2024-04-18 09:56:00,SystemResetWarning,0833.0,5.00,000.00,023.0,022.0,000.0,031.7,024.9,018.5,0000.0,0002.79,0002.29,0002.08
2024-04-18 09:57:00,SystemResetWarning,0833.0,5.00,000.00,022.9,022.0,000.0,031.7,024.9,018.4,0000.0,0002.79,0002.29,0002.08
2024-04-18 09:58:00,SystemResetWarning,0832.9,5.00,000.00,022.9,022.0,000.0,031.7,024.9,018.5,0000.0,0002.87,0002.32,0002.08
2024-04-18 09:59:00,SystemResetWarning,0833.0,5.00,000.00,022.9,022.0,000.0,031.7,024.8,018.5,0000.0,0002.93,0002.34,0002.09
